VIR23K EGPH-EGLL

Flight info

Callsign VIR23K
Flight time 0h 52m
Altitude 31000
Route GOSAM P600 FENIK L612 NAVSO DCT AKOMU DCT VAMEB DCT NUGRA
Aircraft A35K/H-SDE2E3GHIJ3J4J5LM1ORWXY/LB1D1

Departure

Time 2026-05-06 18:25
Airport Edinburgh Airport (EGPH)

Arrival

Time 2026-05-06 19:17
Airport London Heathrow Airport (EGLL)
Time Latitude Longitude Altitude Speed Heading
2026-05-06 18:13 55.95023 -3.36057 122 ft 0 kts 248°
2026-05-06 18:18 55.95027 -3.36038 118 ft 3 kts 248°
2026-05-06 18:18 55.95035 -3.36000 122 ft 3 kts 249°
2026-05-06 18:18 55.95044 -3.35963 122 ft 3 kts 249°
2026-05-06 18:18 55.95051 -3.35931 125 ft 3 kts 253°
2026-05-06 18:19 55.95055 -3.35893 121 ft 3 kts 274°
2026-05-06 18:19 55.95050 -3.35854 122 ft 3 kts 294°
2026-05-06 18:19 55.95041 -3.35823 122 ft 1 kts 298°
2026-05-06 18:21 55.95047 -3.35842 122 ft 5 kts 299°
2026-05-06 18:21 55.95079 -3.35946 118 ft 14 kts 296°
2026-05-06 18:21 55.95124 -3.36147 121 ft 20 kts 287°
2026-05-06 18:21 55.95097 -3.36390 117 ft 22 kts 239°
2026-05-06 18:22 55.95013 -3.36641 118 ft 25 kts 239°
2026-05-06 18:22 55.94918 -3.36919 121 ft 28 kts 238°
2026-05-06 18:22 55.94815 -3.37224 117 ft 30 kts 239°
2026-05-06 18:22 55.94704 -3.37552 117 ft 32 kts 238°
2026-05-06 18:23 55.94585 -3.37902 118 ft 34 kts 239°
2026-05-06 18:23 55.94466 -3.38252 117 ft 24 kts 239°
2026-05-06 18:23 55.94375 -3.38521 118 ft 26 kts 238°
2026-05-06 18:23 55.94291 -3.38784 118 ft 22 kts 255°
2026-05-06 18:24 55.94363 -3.38946 123 ft 18 kts 330°
2026-05-06 18:24 55.94444 -3.38880 116 ft 19 kts 53°
2026-05-06 18:24 55.94658 -3.38253 116 ft 100 kts 59°
2026-05-06 18:24 55.95137 -3.36824 198 ft 161 kts 59°
2026-05-06 18:25 55.95759 -3.35018 798 ft 179 kts 58°
2026-05-06 18:25 55.96597 -3.33378 1777 ft 179 kts 34°
2026-05-06 18:25 55.97817 -3.32613 2455 ft 200 kts
2026-05-06 18:25 55.99258 -3.33219 2794 ft 232 kts 329°
2026-05-06 18:26 56.00318 -3.35493 3327 ft 252 kts 293°
2026-05-06 18:26 56.00878 -3.38530 4036 ft 261 kts 284°
2026-05-06 18:26 56.01340 -3.41689 4984 ft 263 kts 280°
2026-05-06 18:26 56.01430 -3.44932 5968 ft 262 kts 262°
2026-05-06 18:27 56.00845 -3.47980 6953 ft 261 kts 237°
2026-05-06 18:27 55.99653 -3.50421 7977 ft 262 kts 222°
2026-05-06 18:27 55.98209 -3.52449 8951 ft 267 kts 215°
2026-05-06 18:27 55.96639 -3.54247 9938 ft 270 kts 212°
2026-05-06 18:28 55.94990 -3.55991 10678 ft 286 kts 211°
2026-05-06 18:28 55.93205 -3.57874 11085 ft 311 kts 212°
2026-05-06 18:28 55.91288 -3.59953 11459 ft 334 kts 213°
2026-05-06 18:28 55.89275 -3.62203 12085 ft 347 kts 213°
2026-05-06 18:29 55.87225 -3.64543 12902 ft 353 kts 214°
2026-05-06 18:29 55.85144 -3.66942 13737 ft 359 kts 214°
2026-05-06 18:29 55.83032 -3.69389 14538 ft 365 kts 214°
2026-05-06 18:29 55.80895 -3.71866 15359 ft 369 kts 214°
2026-05-06 18:30 55.78729 -3.74370 16149 ft 374 kts 215°
2026-05-06 18:30 55.76536 -3.76898 16947 ft 379 kts 215°
2026-05-06 18:30 55.74307 -3.79460 17794 ft 383 kts 215°
2026-05-06 18:30 55.72050 -3.82048 18584 ft 388 kts 215°
2026-05-06 18:31 55.69770 -3.84659 19375 ft 393 kts 215°
2026-05-06 18:31 55.67489 -3.87266 20114 ft 397 kts 216°
2026-05-06 18:31 55.65151 -3.89933 20856 ft 403 kts 216°
2026-05-06 18:31 55.62787 -3.92628 21576 ft 407 kts 216°
2026-05-06 18:32 55.60386 -3.95364 22263 ft 412 kts 216°
2026-05-06 18:32 55.57957 -3.98104 22939 ft 417 kts 214°
2026-05-06 18:32 55.55356 -4.00475 23624 ft 425 kts 206°
2026-05-06 18:32 55.52518 -4.02141 24271 ft 435 kts 198°
2026-05-06 18:33 55.49492 -4.02948 24889 ft 446 kts 187°
2026-05-06 18:33 55.46363 -4.02718 25454 ft 457 kts 175°
2026-05-06 18:33 55.43247 -4.01363 26023 ft 466 kts 164°
2026-05-06 18:33 55.40225 -3.99171 26572 ft 474 kts 157°
2026-05-06 18:34 55.37278 -3.96483 27137 ft 479 kts 153°
2026-05-06 18:34 55.34371 -3.93567 27695 ft 484 kts 152°
2026-05-06 18:34 55.31447 -3.90566 28223 ft 489 kts 152°
2026-05-06 18:34 55.28497 -3.87563 28747 ft 492 kts 152°
2026-05-06 18:35 55.25510 -3.84583 29246 ft 496 kts 152°
2026-05-06 18:35 55.22485 -3.81625 29710 ft 500 kts 153°
2026-05-06 18:35 55.19411 -3.78723 30173 ft 503 kts 154°
2026-05-06 18:35 55.16271 -3.75973 30606 ft 506 kts 155°
2026-05-06 18:36 55.13089 -3.73292 30940 ft 510 kts 156°
2026-05-06 18:36 55.09890 -3.70625 31018 ft 509 kts 156°
2026-05-06 18:36 55.03494 -3.65257 31018 ft 510 kts 155°
2026-05-06 18:37 54.97118 -3.59849 31018 ft 509 kts 155°
2026-05-06 18:37 54.90758 -3.54443 31017 ft 509 kts 155°
2026-05-06 18:38 54.84403 -3.49060 31017 ft 508 kts 155°
2026-05-06 18:38 54.78610 -3.44168 31017 ft 507 kts 155°
2026-05-06 18:39 54.72350 -3.38899 31018 ft 507 kts 155°
2026-05-06 18:40 54.62884 -3.30973 31018 ft 506 kts 155°
2026-05-06 18:40 54.56550 -3.25691 31016 ft 506 kts 155°
2026-05-06 18:41 54.50214 -3.20423 31019 ft 505 kts 155°
2026-05-06 18:41 54.43885 -3.15180 31016 ft 505 kts 155°
2026-05-06 18:42 54.37551 -3.09953 31017 ft 505 kts 155°
2026-05-06 18:42 54.31224 -3.04750 31017 ft 504 kts 155°
2026-05-06 18:43 54.24900 -2.99568 31017 ft 504 kts 155°
2026-05-06 18:43 54.18574 -2.94400 31018 ft 504 kts 155°
2026-05-06 18:44 54.12218 -2.89398 31017 ft 503 kts 158°
2026-05-06 18:44 54.05773 -2.84797 31017 ft 502 kts 159°
2026-05-06 18:45 53.99275 -2.80470 31019 ft 501 kts 163°
2026-05-06 18:45 53.92643 -2.76893 31017 ft 498 kts 164°
2026-05-06 18:46 53.86042 -2.73388 31018 ft 497 kts 164°
2026-05-06 18:46 53.79439 -2.69902 31018 ft 497 kts 164°
2026-05-06 18:47 53.72848 -2.66440 31017 ft 496 kts 164°
2026-05-06 18:47 53.66262 -2.62991 31017 ft 495 kts 164°
2026-05-06 18:48 53.59680 -2.59557 31018 ft 495 kts 164°
2026-05-06 18:48 53.53137 -2.56154 31017 ft 495 kts 164°
2026-05-06 18:49 53.46556 -2.52741 31017 ft 495 kts 164°
2026-05-06 18:49 53.39974 -2.49338 31017 ft 495 kts 164°
2026-05-06 18:50 53.33395 -2.45949 31017 ft 495 kts 165°
2026-05-06 18:50 53.26819 -2.42573 31017 ft 494 kts 165°
2026-05-06 18:51 53.20246 -2.39209 31017 ft 494 kts 165°
2026-05-06 18:51 53.13670 -2.35853 31017 ft 494 kts 165°
2026-05-06 18:52 53.07104 -2.32513 31022 ft 493 kts 165°
2026-05-06 18:52 53.00776 -2.28172 31030 ft 495 kts 150°
2026-05-06 18:53 52.94947 -2.22060 31018 ft 495 kts 149°
2026-05-06 18:53 52.89134 -2.15933 31025 ft 495 kts 149°
2026-05-06 18:54 52.83323 -2.09855 31027 ft 494 kts 149°
2026-05-06 18:54 52.77511 -2.03805 31035 ft 494 kts 149°
2026-05-06 18:54 52.74640 -2.00825 30920 ft 495 kts 149°
2026-05-06 18:55 52.71701 -1.97781 30669 ft 503 kts 150°
2026-05-06 18:55 52.68730 -1.94707 30413 ft 504 kts 150°
2026-05-06 18:55 52.65758 -1.91636 30079 ft 503 kts 150°
2026-05-06 18:55 52.62804 -1.88588 29221 ft 501 kts 150°
2026-05-06 18:56 52.59852 -1.85547 28467 ft 498 kts 150°
2026-05-06 18:56 52.56929 -1.82543 27842 ft 492 kts 150°
2026-05-06 18:56 52.54053 -1.79591 27234 ft 486 kts 150°
2026-05-06 18:56 52.51193 -1.76660 26599 ft 481 kts 150°
2026-05-06 18:57 52.48373 -1.73775 25964 ft 475 kts 150°
2026-05-06 18:57 52.45580 -1.70921 25344 ft 470 kts 150°
2026-05-06 18:57 52.42823 -1.68109 24742 ft 465 kts 150°
2026-05-06 18:57 52.40096 -1.65331 24139 ft 459 kts 150°
2026-05-06 18:58 52.37399 -1.62589 23526 ft 454 kts 150°
2026-05-06 18:58 52.34730 -1.59879 22948 ft 448 kts 150°
2026-05-06 18:58 52.32092 -1.57206 22362 ft 443 kts 149°
2026-05-06 18:58 52.29489 -1.54571 21771 ft 438 kts 149°
2026-05-06 18:59 52.26911 -1.51962 21186 ft 434 kts 149°
2026-05-06 18:59 52.24356 -1.49382 20601 ft 429 kts 149°
2026-05-06 18:59 52.21856 -1.46766 20006 ft 426 kts 145°
2026-05-06 18:59 52.19548 -1.43751 19585 ft 428 kts 141°
2026-05-06 19:00 52.17266 -1.40561 19154 ft 435 kts 140°
2026-05-06 19:00 52.14973 -1.37342 18692 ft 435 kts 140°
2026-05-06 19:00 52.12687 -1.34143 18256 ft 431 kts 140°
2026-05-06 19:00 52.11185 -1.32046 17969 ft 429 kts 140°
2026-05-06 19:01 52.08161 -1.27841 17381 ft 426 kts 140°
2026-05-06 19:01 52.05910 -1.24717 16938 ft 424 kts 140°
2026-05-06 19:01 52.03673 -1.21619 16505 ft 421 kts 140°
2026-05-06 19:01 52.01455 -1.18550 16077 ft 418 kts 140°
2026-05-06 19:02 51.99246 -1.15496 15652 ft 416 kts 140°
2026-05-06 19:02 51.97051 -1.12467 15298 ft 410 kts 140°
2026-05-06 19:02 51.94926 -1.09534 14982 ft 392 kts 140°
2026-05-06 19:02 51.92913 -1.06751 14439 ft 369 kts 140°
2026-05-06 19:03 51.91021 -1.04141 14029 ft 346 kts 140°
2026-05-06 19:03 51.89820 -1.02536 13787 ft 330 kts 143°
2026-05-06 19:03 51.87230 -1.00450 13369 ft 302 kts 163°
2026-05-06 19:03 51.85279 -0.99503 13043 ft 285 kts 165°
2026-05-06 19:04 51.83400 -0.98646 12555 ft 277 kts 166°
2026-05-06 19:04 51.81559 -0.97816 11963 ft 273 kts 165°
2026-05-06 19:04 51.79733 -0.96998 11410 ft 271 kts 166°
2026-05-06 19:04 51.78512 -0.96454 11030 ft 268 kts 165°
2026-05-06 19:05 51.76724 -0.95661 10457 ft 265 kts 165°
2026-05-06 19:05 51.74957 -0.94885 9880 ft 262 kts 166°
2026-05-06 19:05 51.73206 -0.94122 9317 ft 259 kts 165°
2026-05-06 19:05 51.71474 -0.93373 8759 ft 256 kts 165°
2026-05-06 19:06 51.69768 -0.92642 8222 ft 252 kts 166°
2026-05-06 19:06 51.68072 -0.91916 7699 ft 253 kts 166°
2026-05-06 19:06 51.66394 -0.91201 7365 ft 251 kts 166°
2026-05-06 19:06 51.64698 -0.90479 7089 ft 247 kts 166°
2026-05-06 19:07 51.63035 -0.89777 7023 ft 248 kts 166°
2026-05-06 19:07 51.61370 -0.89077 6660 ft 254 kts 166°
2026-05-06 19:07 51.59689 -0.88381 6194 ft 246 kts 167°
2026-05-06 19:07 51.58005 -0.88313 5613 ft 243 kts 195°
2026-05-06 19:08 51.56537 -0.89585 5207 ft 241 kts 225°
2026-05-06 19:08 51.55457 -0.91604 5023 ft 238 kts 234°
2026-05-06 19:08 51.54469 -0.93768 4999 ft 239 kts 235°
2026-05-06 19:08 51.53504 -0.95924 4998 ft 238 kts 235°
2026-05-06 19:09 51.52512 -0.98039 4992 ft 238 kts 230°
2026-05-06 19:09 51.51173 -0.99451 5013 ft 224 kts 197°
2026-05-06 19:09 51.49701 -0.99796 5025 ft 206 kts 182°
2026-05-06 19:09 51.48341 -0.99366 4824 ft 198 kts 150°
2026-05-06 19:10 51.47504 -0.97728 4434 ft 192 kts 104°
2026-05-06 19:10 51.47480 -0.95640 4111 ft 186 kts 81°
2026-05-06 19:10 51.47575 -0.93568 4001 ft 188 kts 85°
2026-05-06 19:10 51.47602 -0.91460 3984 ft 189 kts 87°
2026-05-06 19:11 51.47608 -0.89369 3989 ft 187 kts 87°
2026-05-06 19:11 51.47611 -0.87365 3988 ft 171 kts 88°
2026-05-06 19:11 51.47612 -0.85489 3994 ft 167 kts 87°
2026-05-06 19:11 51.47615 -0.83636 3987 ft 166 kts 87°
2026-05-06 19:12 51.47622 -0.81776 3989 ft 167 kts 87°
2026-05-06 19:12 51.47631 -0.79918 3916 ft 166 kts 87°
2026-05-06 19:12 51.47642 -0.78073 3715 ft 165 kts 87°
2026-05-06 19:12 51.47648 -0.76235 3473 ft 164 kts 87°
2026-05-06 19:13 51.47654 -0.74411 3240 ft 163 kts 87°
2026-05-06 19:13 51.47660 -0.72599 3009 ft 162 kts 86°
2026-05-06 19:13 51.47668 -0.70793 2796 ft 161 kts 87°
2026-05-06 19:13 51.47674 -0.69000 2579 ft 161 kts 87°
2026-05-06 19:14 51.47681 -0.67212 2365 ft 160 kts 87°
2026-05-06 19:14 51.47687 -0.65429 2149 ft 160 kts 87°
2026-05-06 19:14 51.47694 -0.63639 1938 ft 160 kts 87°
2026-05-06 19:14 51.47700 -0.61852 1722 ft 160 kts 88°
2026-05-06 19:15 51.47706 -0.60072 1511 ft 159 kts 88°
2026-05-06 19:15 51.47712 -0.58367 1307 ft 149 kts 88°
2026-05-06 19:15 51.47716 -0.56763 1096 ft 140 kts 88°
2026-05-06 19:15 51.47717 -0.55230 871 ft 135 kts 88°
2026-05-06 19:16 51.47724 -0.53728 727 ft 135 kts 87°
2026-05-06 19:16 51.47731 -0.52212 542 ft 136 kts 88°
2026-05-06 19:16 51.47739 -0.50710 384 ft 135 kts 88°
2026-05-06 19:16 51.47747 -0.49206 216 ft 135 kts 88°
2026-05-06 19:17 51.47754 -0.47700 97 ft 134 kts 88°
2026-05-06 19:17 51.47760 -0.46381 94 ft 102 kts 90°
2026-05-06 19:17 51.47762 -0.45436 94 ft 47 kts 89°
2026-05-06 19:17 51.47715 -0.45204 93 ft 11 kts 149°
2026-05-06 19:18 51.47688 -0.45189 94 ft 8 kts 166°
2026-05-06 19:18 51.47615 -0.45214 94 ft 11 kts 231°
2026-05-06 19:18 51.47598 -0.45350 92 ft 15 kts 267°
2026-05-06 19:18 51.47597 -0.45534 94 ft 18 kts 270°
2026-05-06 19:19 51.47596 -0.45756 92 ft 22 kts 270°
2026-05-06 19:19 51.47595 -0.46014 94 ft 25 kts 269°
2026-05-06 19:19 51.47595 -0.46293 92 ft 24 kts 270°
2026-05-06 19:19 51.47593 -0.46569 92 ft 26 kts 269°
2026-05-06 19:20 51.47591 -0.46790 94 ft 12 kts 267°
2026-05-06 19:20 51.47568 -0.46906 96 ft 10 kts 221°
2026-05-06 19:20 51.47510 -0.46916 92 ft 8 kts 170°
2026-05-06 19:20 51.47481 -0.46907 93 ft 2 kts 168°
2026-05-06 19:21 51.47477 -0.46906 96 ft 0 kts 168°
2026-05-06 19:21 51.47472 -0.46904 95 ft 0 kts 168°
2026-05-06 19:21 51.47470 -0.46903 92 ft 0 kts 168°
2026-05-06 19:21 51.47460 -0.46900 93 ft 4 kts 168°
2026-05-06 19:22 51.47419 -0.46887 94 ft 8 kts 169°
2026-05-06 19:22 51.47349 -0.46869 95 ft 12 kts 174°
2026-05-06 19:22 51.47249 -0.46865 92 ft 16 kts 180°
2026-05-06 19:22 51.47125 -0.46864 93 ft 16 kts 178°
2026-05-06 19:23 51.47056 -0.46777 93 ft 11 kts 110°
2026-05-06 19:23 51.47002 -0.46672 95 ft 13 kts 146°
2026-05-06 19:23 51.46924 -0.46588 94 ft 15 kts 146°
2026-05-06 19:23 51.46875 -0.46531 93 ft 8 kts 137°
2026-05-06 19:24 51.46880 -0.46470 92 ft 7 kts 53°
2026-05-06 19:24 51.46897 -0.46430 93 ft 5 kts 55°
2026-05-06 19:24 51.46905 -0.46412 95 ft 0 kts 55°